Time,TemperatureF,DewpointF,PressureIn,WindDirection,WindDirectionDegrees,WindSpeedMPH,WindSpeedGustMPH,Humidity,HourlyPrecipIn,Conditions,Clouds,dailyrainin,SolarRadiationWatts/m^2,SoftwareType,DateUTC
2013-02-14 00:00:00,32.7,25.6,29.69,North,0,0.0,0.0,75,0.00,CLR,,0.00,0.0,WeatherDisplay:10.37,2013-02-14 05:00:00,
2013-02-14 00:05:00,32.8,25.7,29.69,North,0,0.0,0.0,75,0.00,CLR,,0.00,0.0,WeatherDisplay:10.37,2013-02-14 05:05:00,
2013-02-14 00:10:00,32.8,25.4,29.69,North,0,0.0,0.0,74,0.00,CLR,,0.00,0.0,WeatherDisplay:10.37,2013-02-14 05:10:00,
2013-02-14 00:15:00,32.8,25.4,29.69,North,0,0.0,0.0,74,0.00,CLR,,0.00,0.0,WeatherDisplay:10.37,2013-02-14 05:15:00,
2013-02-14 00:20:00,32.9,25.8,29.70,North,0,0.0,0.0,75,0.00,CLR,,0.00,0.0,WeatherDisplay:10.37,2013-02-14 05:20:00,
2013-02-14 00:25:00,32.8,25.7,29.69,North,0,0.0,0.0,75,0.00,CLR,,0.00,0.0,WeatherDisplay:10.37,2013-02-14 05:25:00,
2013-02-14 00:30:00,32.8,25.4,29.70,North,0,0.0,0.0,74,0.00,CLR,,0.00,0.0,WeatherDisplay:10.37,2013-02-14 05:30:00,
2013-02-14 00:35:00,32.8,25.4,29.71,North,0,0.0,0.0,74,0.00,CLR,,0.00,0.0,WeatherDisplay:10.37,2013-02-14 05:35:00,
2013-02-14 00:40:00,32.8,25.4,29.71,North,0,0.0,0.0,74,0.00,CLR,,0.00,0.0,WeatherDisplay:10.37,2013-02-14 05:40:00,
2013-02-14 00:45:00,32.8,25.4,29.71,North,0,0.0,0.0,74,0.00,CLR,,0.00,0.0,WeatherDisplay:10.37,2013-02-14 05:45:00,
2013-02-14 00:50:00,32.8,25.7,29.70,North,0,0.0,0.0,75,0.00,CLR,,0.00,0.0,WeatherDisplay:10.37,2013-02-14 05:50:00,
2013-02-14 00:55:00,32.8,25.4,29.70,North,0,0.0,0.0,74,0.00,CLR,,0.00,0.0,WeatherDisplay:10.37,2013-02-14 05:55:00,
2013-02-14 01:00:00,32.8,25.4,29.70,North,0,0.0,0.0,74,0.00,CLR,,0.00,0.0,WeatherDisplay:10.37,2013-02-14 06:00:00,
2013-02-14 01:05:00,32.8,25.7,29.70,North,0,0.0,0.0,75,0.00,CLR,,0.00,0.0,WeatherDisplay:10.37,2013-02-14 06:05:00,
2013-02-14 01:10:00,32.8,26.1,29.70,North,0,0.0,0.0,76,0.00,CLR,,0.00,0.0,WeatherDisplay:10.37,2013-02-14 06:10:00,
2013-02-14 01:15:00,32.8,26.4,29.69,North,0,0.0,0.0,77,0.00,CLR,,0.00,0.0,WeatherDisplay:10.37,2013-02-14 06:15:00,
2013-02-14 01:20:00,32.8,26.4,29.69,North,0,0.0,0.0,77,0.00,CLR,,0.00,0.0,WeatherDisplay:10.37,2013-02-14 06:20:00,
2013-02-14 01:25:00,32.7,26.3,29.69,North,0,0.0,0.0,77,0.00,CLR,,0.00,0.0,WeatherDisplay:10.37,2013-02-14 06:25:00,
2013-02-14 01:30:00,32.7,26.6,29.69,North,0,0.0,0.0,78,0.00,CLR,,0.00,0.0,WeatherDisplay:10.37,2013-02-14 06:30:00,
2013-02-14 01:35:00,32.6,26.8,29.69,North,0,0.0,0.0,79,0.00,CLR,,0.00,0.0,WeatherDisplay:10.37,2013-02-14 06:35:00,
2013-02-14 01:40:00,32.6,26.8,29.69,North,0,0.0,0.0,79,0.00,CLR,,0.00,0.0,WeatherDisplay:10.37,2013-02-14 06:40:00,
2013-02-14 01:45:00,32.5,26.7,29.69,North,0,0.0,0.0,79,0.00,CLR,,0.00,0.0,WeatherDisplay:10.37,2013-02-14 06:45:00,
2013-02-14 01:50:00,32.4,26.9,29.68,North,0,0.0,0.0,80,0.00,CLR,,0.00,0.0,WeatherDisplay:10.37,2013-02-14 06:50:00,
2013-02-14 01:55:00,32.4,26.9,29.68,North,0,0.0,0.0,80,0.00,CLR,,0.00,0.0,WeatherDisplay:10.37,2013-02-14 06:55:00,
2013-02-14 02:00:00,32.3,26.8,29.69,North,0,0.0,0.0,80,0.00,CLR,,0.00,0.0,WeatherDisplay:10.37,2013-02-14 07:00:00,
2013-02-14 02:05:00,32.2,26.7,29.69,North,0,0.0,0.0,80,0.00,CLR,,0.00,0.0,WeatherDisplay:10.37,2013-02-14 07:05:00,
2013-02-14 02:10:00,32.1,26.6,29.69,North,0,0.0,0.0,80,0.00,CLR,,0.00,0.0,WeatherDisplay:10.37,2013-02-14 07:10:00,
2013-02-14 02:15:00,32.0,26.5,29.69,North,0,0.0,0.0,80,0.00,CLR,,0.00,0.0,WeatherDisplay:10.37,2013-02-14 07:15:00,
2013-02-14 02:20:00,31.9,26.4,29.69,North,0,0.0,0.0,80,0.00,CLR,,0.00,0.0,WeatherDisplay:10.37,2013-02-14 07:20:00,
2013-02-14 02:25:00,31.9,26.7,29.69,North,0,0.0,0.0,81,0.00,CLR,,0.00,0.0,WeatherDisplay:10.37,2013-02-14 07:25:00,
2013-02-14 02:30:00,31.8,26.6,29.69,North,0,0.0,0.0,81,0.00,CLR,,0.00,0.0,WeatherDisplay:10.37,2013-02-14 07:30:00,
2013-02-14 02:35:00,31.7,26.5,29.69,North,0,0.0,0.0,81,0.00,CLR,,0.00,0.0,WeatherDisplay:10.37,2013-02-14 07:35:00,
2013-02-14 02:40:00,31.6,26.4,29.69,North,0,0.0,0.0,81,0.00,CLR,,0.00,0.0,WeatherDisplay:10.37,2013-02-14 07:40:00,
2013-02-14 02:45:00,31.5,26.3,29.69,North,0,0.0,0.0,81,0.00,CLR,,0.00,0.0,WeatherDisplay:10.37,2013-02-14 07:45:00,
2013-02-14 02:50:00,31.4,26.2,29.69,North,0,0.0,0.0,81,0.00,CLR,,0.00,0.0,WeatherDisplay:10.37,2013-02-14 07:50:00,
2013-02-14 02:55:00,31.3,26.4,29.69,North,0,0.0,0.0,82,0.00,CLR,,0.00,0.0,WeatherDisplay:10.37,2013-02-14 07:55:00,
2013-02-14 03:00:00,31.1,26.2,29.69,North,0,0.0,0.0,82,0.00,CLR,,0.00,0.0,WeatherDisplay:10.37,2013-02-14 08:00:00,
2013-02-14 03:05:00,31.0,26.1,29.69,North,0,0.0,0.0,82,0.00,CLR,,0.00,0.0,WeatherDisplay:10.37,2013-02-14 08:05:00,
2013-02-14 03:10:00,30.9,26.1,29.69,North,0,0.0,0.0,82,0.00,CLR,,0.00,0.0,WeatherDisplay:10.37,2013-02-14 08:10:00,
2013-02-14 03:15:00,30.6,26.1,29.69,North,0,0.0,0.0,83,0.00,CLR,,0.00,0.0,WeatherDisplay:10.37,2013-02-14 08:15:00,
2013-02-14 03:20:00,30.4,25.9,29.69,North,0,0.0,0.0,83,0.00,CLR,,0.00,0.0,WeatherDisplay:10.37,2013-02-14 08:20:00,
2013-02-14 03:25:00,30.3,25.8,29.69,North,0,0.0,0.0,83,0.00,CLR,,0.00,0.0,WeatherDisplay:10.37,2013-02-14 08:25:00,
2013-02-14 03:30:00,30.1,25.6,29.70,North,0,0.0,0.0,83,0.00,CLR,,0.00,0.0,WeatherDisplay:10.37,2013-02-14 08:30:00,
2013-02-14 03:35:00,29.9,25.4,29.70,North,0,0.0,0.0,83,0.00,CLR,,0.00,0.0,WeatherDisplay:10.37,2013-02-14 08:35:00,
2013-02-14 03:40:00,29.7,25.2,29.71,North,0,0.0,0.0,83,0.00,CLR,,0.00,0.0,WeatherDisplay:10.37,2013-02-14 08:40:00,
2013-02-14 03:45:00,29.6,25.4,29.72,North,0,0.0,0.0,84,0.00,CLR,,0.00,0.0,WeatherDisplay:10.37,2013-02-14 08:45:00,
2013-02-14 03:50:00,29.5,25.3,29.71,North,0,0.0,0.0,84,0.00,CLR,,0.00,0.0,WeatherDisplay:10.37,2013-02-14 08:50:00,
2013-02-14 03:55:00,29.5,25.3,29.71,North,0,0.0,0.0,84,0.00,CLR,,0.00,0.0,WeatherDisplay:10.37,2013-02-14 08:55:00,
2013-02-14 04:00:00,29.4,25.2,29.71,North,0,0.0,0.0,84,0.00,CLR,,0.00,0.0,WeatherDisplay:10.37,2013-02-14 09:00:00,
2013-02-14 04:05:00,29.4,25.2,29.72,North,0,0.0,0.0,84,0.00,CLR,,0.00,0.0,WeatherDisplay:10.37,2013-02-14 09:05:00,
2013-02-14 04:10:00,29.4,25.2,29.72,North,0,0.0,0.0,84,0.00,CLR,,0.00,0.0,WeatherDisplay:10.37,2013-02-14 09:10:00,
2013-02-14 04:15:00,29.5,25.3,29.71,North,0,0.0,0.0,84,0.00,CLR,,0.00,0.0,WeatherDisplay:10.37,2013-02-14 09:15:00,
2013-02-14 04:20:00,29.5,25.0,29.72,North,0,0.0,0.0,83,0.00,CLR,,0.00,0.0,WeatherDisplay:10.37,2013-02-14 09:20:00,
2013-02-14 04:25:00,29.7,24.9,29.72,North,0,0.0,0.0,82,0.00,CLR,,0.00,0.0,WeatherDisplay:10.37,2013-02-14 09:25:00,
2013-02-14 04:30:00,29.9,25.1,29.73,North,0,0.0,0.0,82,0.00,CLR,,0.00,0.0,WeatherDisplay:10.37,2013-02-14 09:30:00,
2013-02-14 04:35:00,30.0,24.9,29.73,North,0,0.0,0.0,81,0.00,CLR,,0.00,0.0,WeatherDisplay:10.37,2013-02-14 09:35:00,
2013-02-14 04:40:00,30.1,25.0,29.73,North,0,0.0,0.0,81,0.00,CLR,,0.00,0.0,WeatherDisplay:10.37,2013-02-14 09:40:00,
2013-02-14 04:45:00,30.1,24.7,29.73,North,0,0.0,0.0,80,0.00,CLR,,0.00,0.0,WeatherDisplay:10.37,2013-02-14 09:45:00,
2013-02-14 04:50:00,30.2,24.8,29.73,North,0,0.0,0.0,80,0.00,CLR,,0.00,0.0,WeatherDisplay:10.37,2013-02-14 09:50:00,
2013-02-14 04:55:00,30.2,24.8,29.73,North,0,0.0,0.0,80,0.00,CLR,,0.00,0.0,WeatherDisplay:10.37,2013-02-14 09:55:00,
2013-02-14 05:00:00,30.2,24.5,29.74,North,0,0.0,0.0,79,0.00,CLR,,0.00,0.0,WeatherDisplay:10.37,2013-02-14 10:00:00,
2013-02-14 05:05:00,30.1,24.4,29.74,North,0,0.0,0.0,79,0.00,CLR,,0.00,0.0,WeatherDisplay:10.37,2013-02-14 10:05:00,
2013-02-14 05:10:00,30.1,24.4,29.74,North,0,0.0,0.0,79,0.00,CLR,,0.00,0.0,WeatherDisplay:10.37,2013-02-14 10:10:00,
2013-02-14 05:15:00,30.0,24.0,29.73,North,0,0.0,0.0,78,0.00,CLR,,0.00,0.0,WeatherDisplay:10.37,2013-02-14 10:15:00,
2013-02-14 05:20:00,29.9,23.9,29.73,North,0,0.0,0.0,78,0.00,CLR,,0.00,0.0,WeatherDisplay:10.37,2013-02-14 10:20:00,
2013-02-14 05:25:00,29.7,23.7,29.73,North,0,0.0,0.0,78,0.00,CLR,,0.00,0.0,WeatherDisplay:10.37,2013-02-14 10:25:00,
2013-02-14 05:30:00,29.6,23.6,29.74,North,0,0.0,0.0,78,0.00,CLR,,0.00,0.0,WeatherDisplay:10.37,2013-02-14 10:30:00,
2013-02-14 05:35:00,29.5,23.5,29.74,North,0,0.0,0.0,78,0.00,CLR,,0.00,0.0,WeatherDisplay:10.37,2013-02-14 10:35:00,
2013-02-14 05:40:00,29.4,23.4,29.74,North,0,0.0,0.0,78,0.00,CLR,,0.00,0.0,WeatherDisplay:10.37,2013-02-14 10:40:00,
2013-02-14 05:45:00,29.2,23.2,29.74,North,0,0.0,0.0,78,0.00,CLR,,0.00,0.0,WeatherDisplay:10.37,2013-02-14 10:45:00,
2013-02-14 05:50:00,29.1,23.1,29.74,North,0,0.0,0.0,78,0.00,CLR,,0.00,0.0,WeatherDisplay:10.37,2013-02-14 10:50:00,
2013-02-14 05:55:00,29.0,23.0,29.74,North,0,0.0,0.0,78,0.00,CLR,,0.00,0.0,WeatherDisplay:10.37,2013-02-14 10:55:00,
2013-02-14 06:00:00,28.9,22.9,29.74,North,0,0.0,0.0,78,0.00,CLR,,0.00,0.0,WeatherDisplay:10.37,2013-02-14 11:00:00,
2013-02-14 06:05:00,28.8,22.8,29.74,North,0,0.0,0.0,78,0.00,CLR,,0.00,0.0,WeatherDisplay:10.37,2013-02-14 11:05:00,
2013-02-14 06:10:00,28.7,22.7,29.74,North,0,0.0,0.0,78,0.00,CLR,,0.00,0.0,WeatherDisplay:10.37,2013-02-14 11:10:00,
2013-02-14 06:15:00,28.6,22.6,29.75,North,0,0.0,0.0,78,0.00,OVC,,0.00,0.0,WeatherDisplay:10.37,2013-02-14 11:15:00,
2013-02-14 06:20:00,28.5,22.5,29.76,North,0,0.0,0.0,78,0.00,OVC,,0.00,0.0,WeatherDisplay:10.37,2013-02-14 11:20:00,
2013-02-14 06:25:00,28.4,22.4,29.76,North,0,0.0,0.0,78,0.00,OVC,,0.00,0.0,WeatherDisplay:10.37,2013-02-14 11:25:00,
2013-02-14 06:30:00,28.4,22.4,29.76,North,0,0.0,0.0,78,0.00,OVC,,0.00,0.0,WeatherDisplay:10.37,2013-02-14 11:30:00,
2013-02-14 06:35:00,28.3,22.3,29.76,North,0,0.0,0.0,78,0.00,OVC,,0.00,0.0,WeatherDisplay:10.37,2013-02-14 11:35:00,
2013-02-14 06:40:00,28.3,22.6,29.76,North,0,0.0,0.0,79,0.00,OVC,,0.00,0.0,WeatherDisplay:10.37,2013-02-14 11:40:00,
2013-02-14 06:45:00,28.1,22.4,29.76,North,0,0.0,0.0,79,0.00,OVC,,0.00,0.0,WeatherDisplay:10.37,2013-02-14 11:45:00,
2013-02-14 06:50:00,28.1,22.4,29.76,North,0,0.0,0.0,79,0.00,OVC,,0.00,5.0,WeatherDisplay:10.37,2013-02-14 11:50:00,
2013-02-14 06:55:00,27.9,22.2,29.76,North,0,0.0,0.0,79,0.00,BKN,,0.00,7.0,WeatherDisplay:10.37,2013-02-14 11:55:00,
2013-02-14 07:00:00,27.8,22.1,29.77,North,0,0.0,0.0,79,0.00,BKN,,0.00,9.0,WeatherDisplay:10.37,2013-02-14 12:00:00,
2013-02-14 07:05:00,27.6,21.9,29.77,North,0,0.0,0.0,79,0.00,BKN,,0.00,12.0,WeatherDisplay:10.37,2013-02-14 12:05:00,
2013-02-14 07:10:00,27.5,22.1,29.78,North,0,0.0,0.0,80,0.00,BKN,,0.00,14.0,WeatherDisplay:10.37,2013-02-14 12:10:00,
2013-02-14 07:15:00,27.4,22.0,29.79,North,0,0.0,0.0,80,0.00,BKN,,0.00,18.0,WeatherDisplay:10.37,2013-02-14 12:15:00,
2013-02-14 07:20:00,27.4,22.0,29.79,North,0,0.0,0.0,80,0.00,BKN,,0.00,19.0,WeatherDisplay:10.37,2013-02-14 12:20:00,
2013-02-14 07:25:00,27.4,22.0,29.79,North,0,0.0,0.0,80,0.00,BKN,,0.00,21.0,WeatherDisplay:10.37,2013-02-14 12:25:00,
2013-02-14 07:30:00,27.5,22.1,29.79,North,0,0.0,0.0,80,0.00,BKN,,0.00,30.0,WeatherDisplay:10.37,2013-02-14 12:30:00,
2013-02-14 07:35:00,27.6,22.2,29.79,North,0,0.0,0.0,80,0.00,BKN,,0.00,26.0,WeatherDisplay:10.37,2013-02-14 12:35:00,
2013-02-14 07:40:00,27.6,22.2,29.80,North,0,0.0,0.0,80,0.00,BKN,,0.00,26.0,WeatherDisplay:10.37,2013-02-14 12:40:00,
2013-02-14 07:45:00,27.8,22.4,29.80,North,0,0.0,0.0,80,0.00,BKN,,0.00,32.0,WeatherDisplay:10.37,2013-02-14 12:45:00,
2013-02-14 07:50:00,27.9,22.5,29.81,North,0,0.0,0.0,80,0.00,BKN,,0.00,35.0,WeatherDisplay:10.37,2013-02-14 12:50:00,
2013-02-14 07:55:00,28.2,22.8,29.81,North,0,0.0,0.0,80,0.00,BKN,,0.00,42.0,WeatherDisplay:10.37,2013-02-14 12:55:00,
2013-02-14 08:00:00,28.5,22.8,29.81,North,0,0.0,0.0,79,0.00,BKN,,0.00,42.0,WeatherDisplay:10.37,2013-02-14 13:00:00,
2013-02-14 08:05:00,28.8,23.1,29.81,North,0,0.0,0.0,79,0.00,BKN,,0.00,35.0,WeatherDisplay:10.37,2013-02-14 13:05:00,
2013-02-14 08:10:00,29.2,23.5,29.82,North,0,0.0,0.0,79,0.00,BKN,,0.00,60.0,WeatherDisplay:10.37,2013-02-14 13:10:00,
2013-02-14 08:15:00,29.5,23.5,29.82,North,0,0.0,0.0,78,0.00,BKN,,0.00,105.0,WeatherDisplay:10.37,2013-02-14 13:15:00,
2013-02-14 08:20:00,29.8,23.8,29.82,North,0,0.0,0.0,78,0.00,SCT,,0.00,139.0,WeatherDisplay:10.37,2013-02-14 13:20:00,
2013-02-14 08:25:00,30.4,23.7,29.82,North,0,0.0,0.0,76,0.00,SCT,,0.00,179.0,WeatherDisplay:10.37,2013-02-14 13:25:00,
2013-02-14 08:30:00,31.0,24.0,29.82,North,0,0.0,0.0,75,0.00,FEW,,0.00,74.0,WeatherDisplay:10.37,2013-02-14 13:30:00,
2013-02-14 08:35:00,31.5,24.2,29.82,North,0,0.0,0.0,74,0.00,SCT,,0.00,163.0,WeatherDisplay:10.37,2013-02-14 13:35:00,
2013-02-14 08:40:00,32.2,24.2,29.83,North,0,0.0,0.0,72,0.00,SCT,,0.00,118.0,WeatherDisplay:10.37,2013-02-14 13:40:00,
2013-02-14 08:45:00,32.7,24.0,29.84,North,0,0.0,0.0,70,0.00,SCT,,0.00,156.0,WeatherDisplay:10.37,2013-02-14 13:45:00,
2013-02-14 08:50:00,33.3,24.2,29.84,North,0,0.0,0.0,69,0.00,SCT,,0.00,151.0,WeatherDisplay:10.37,2013-02-14 13:50:00,
2013-02-14 08:55:00,33.9,24.1,29.84,North,0,0.0,0.0,67,0.00,SCT,,0.00,185.0,WeatherDisplay:10.37,2013-02-14 13:55:00,
2013-02-14 09:00:00,34.3,24.1,29.84,North,0,0.0,0.0,66,0.00,SCT,,0.00,214.0,WeatherDisplay:10.37,2013-02-14 14:00:00,
2013-02-14 09:05:00,34.9,23.9,29.84,North,0,0.0,0.0,64,0.00,SCT,,0.00,176.0,WeatherDisplay:10.37,2013-02-14 14:05:00,
2013-02-14 09:10:00,35.4,24.0,29.84,North,0,0.0,0.0,63,0.00,SCT,,0.00,207.0,WeatherDisplay:10.37,2013-02-14 14:10:00,
2013-02-14 09:15:00,35.9,24.1,29.84,North,0,0.0,0.0,62,0.00,SCT,,0.00,105.0,WeatherDisplay:10.37,2013-02-14 14:15:00,
2013-02-14 09:20:00,36.2,23.6,29.85,North,0,0.0,0.0,60,0.00,BKN,,0.00,188.0,WeatherDisplay:10.37,2013-02-14 14:20:00,
2013-02-14 09:25:00,36.4,23.4,29.85,North,0,0.0,0.0,59,0.00,BKN,,0.00,167.0,WeatherDisplay:10.37,2013-02-14 14:25:00,
2013-02-14 09:30:00,36.6,23.6,29.86,North,0,0.0,0.0,59,0.00,SCT,,0.00,179.0,WeatherDisplay:10.37,2013-02-14 14:30:00,
2013-02-14 09:35:00,36.9,23.5,29.85,North,0,0.0,0.0,58,0.00,SCT,,0.00,373.0,WeatherDisplay:10.37,2013-02-14 14:35:00,
2013-02-14 09:40:00,37.3,23.0,29.85,North,0,0.0,0.0,56,0.00,CLR,,0.00,376.0,WeatherDisplay:10.37,2013-02-14 14:40:00,
2013-02-14 09:45:00,37.6,23.3,29.85,North,0,0.0,0.0,56,0.00,CLR,,0.00,411.0,WeatherDisplay:10.37,2013-02-14 14:45:00,
2013-02-14 09:50:00,38.1,23.8,29.85,North,0,0.0,0.0,56,0.00,CLR,,0.00,413.0,WeatherDisplay:10.37,2013-02-14 14:50:00,
2013-02-14 09:55:00,38.6,24.7,29.85,North,0,0.0,0.0,57,0.00,CLR,,0.00,436.0,WeatherDisplay:10.37,2013-02-14 14:55:00,
2013-02-14 10:00:00,38.9,24.1,29.85,North,0,0.0,0.0,55,0.00,CLR,,0.00,432.0,WeatherDisplay:10.37,2013-02-14 15:00:00,
2013-02-14 10:05:00,38.8,24.0,29.86,North,0,0.0,0.0,55,0.00,CLR,,0.00,439.0,WeatherDisplay:10.37,2013-02-14 15:05:00,
2013-02-14 10:10:00,39.1,24.7,29.86,North,0,0.0,0.0,56,0.00,CLR,,0.00,446.0,WeatherDisplay:10.37,2013-02-14 15:10:00,
2013-02-14 10:15:00,39.2,24.4,29.86,North,0,0.0,0.0,55,0.00,CLR,,0.00,446.0,WeatherDisplay:10.37,2013-02-14 15:15:00,
2013-02-14 10:20:00,39.7,24.0,29.86,North,0,0.0,0.0,53,0.00,CLR,,0.00,441.0,WeatherDisplay:10.37,2013-02-14 15:20:00,
2013-02-14 10:25:00,40.2,24.4,29.86,North,0,0.0,0.0,53,0.00,CLR,,0.00,445.0,WeatherDisplay:10.37,2013-02-14 15:25:00,
2013-02-14 10:30:00,40.1,23.9,29.86,North,0,0.0,0.0,52,0.00,CLR,,0.00,443.0,WeatherDisplay:10.37,2013-02-14 15:30:00,
2013-02-14 10:35:00,40.3,24.1,29.87,North,0,0.0,0.0,52,0.00,CLR,,0.00,450.0,WeatherDisplay:10.37,2013-02-14 15:35:00,
2013-02-14 10:40:00,40.4,24.6,29.86,North,0,0.0,0.0,53,0.00,CLR,,0.00,450.0,WeatherDisplay:10.37,2013-02-14 15:40:00,
2013-02-14 10:45:00,40.6,25.2,29.86,North,0,0.0,0.0,54,0.00,CLR,,0.00,450.0,WeatherDisplay:10.37,2013-02-14 15:45:00,
2013-02-14 10:50:00,40.7,24.9,29.86,North,0,0.0,0.0,53,0.00,FEW,,0.00,457.0,WeatherDisplay:10.37,2013-02-14 15:50:00,
2013-02-14 10:55:00,41.0,24.2,29.86,North,0,0.0,0.0,51,0.00,FEW,,0.00,459.0,WeatherDisplay:10.37,2013-02-14 15:55:00,
2013-02-14 11:00:00,40.3,24.5,29.86,North,0,0.0,0.0,53,0.00,FEW,,0.00,466.0,WeatherDisplay:10.37,2013-02-14 16:00:00,
2013-02-14 11:05:00,40.6,24.3,29.86,North,0,0.0,0.0,52,0.00,FEW,,0.00,473.0,WeatherDisplay:10.37,2013-02-14 16:05:00,
2013-02-14 11:10:00,41.0,24.7,29.87,North,0,0.0,0.0,52,0.00,FEW,,0.00,480.0,WeatherDisplay:10.37,2013-02-14 16:10:00,
2013-02-14 11:15:00,41.4,25.1,29.87,North,0,0.0,0.0,52,0.00,FEW,,0.00,446.0,WeatherDisplay:10.37,2013-02-14 16:15:00,
2013-02-14 11:20:00,41.4,25.5,29.86,North,0,0.0,0.0,53,0.00,FEW,,0.00,464.0,WeatherDisplay:10.37,2013-02-14 16:20:00,
2013-02-14 11:25:00,41.8,25.0,29.87,North,0,0.0,0.0,51,0.00,FEW,,0.00,473.0,WeatherDisplay:10.37,2013-02-14 16:25:00,
2013-02-14 11:30:00,41.9,25.5,29.87,North,0,0.0,0.0,52,0.00,FEW,,0.00,513.0,WeatherDisplay:10.37,2013-02-14 16:30:00,
2013-02-14 11:35:00,41.7,24.9,29.87,North,0,0.0,0.0,51,0.00,CLR,,0.00,526.0,WeatherDisplay:10.37,2013-02-14 16:35:00,
2013-02-14 11:40:00,41.7,25.4,29.87,North,0,0.0,0.0,52,0.00,CLR,,0.00,529.0,WeatherDisplay:10.37,2013-02-14 16:40:00,
2013-02-14 11:45:00,42.1,24.3,29.87,North,0,0.0,0.0,49,0.00,CLR,,0.00,536.0,WeatherDisplay:10.37,2013-02-14 16:45:00,
2013-02-14 11:50:00,42.0,24.7,29.86,North,0,0.0,0.0,50,0.00,CLR,,0.00,545.0,WeatherDisplay:10.37,2013-02-14 16:50:00,
2013-02-14 11:55:00,41.3,24.5,29.86,North,0,0.0,0.0,51,0.00,CLR,,0.00,554.0,WeatherDisplay:10.37,2013-02-14 16:55:00,
2013-02-14 12:00:00,41.0,23.8,29.86,North,0,0.0,0.0,50,0.00,CLR,,0.00,557.0,WeatherDisplay:10.37,2013-02-14 17:00:00,
2013-02-14 12:05:00,41.0,25.6,29.86,North,0,0.0,0.0,54,0.00,CLR,,0.00,561.0,WeatherDisplay:10.37,2013-02-14 17:05:00,
2013-02-14 12:10:00,41.4,24.1,29.86,North,0,0.0,0.0,50,0.00,CLR,,0.00,571.0,WeatherDisplay:10.37,2013-02-14 17:10:00,
2013-02-14 12:15:00,41.9,25.1,29.86,North,0,0.0,0.0,51,0.00,CLR,,0.00,573.0,WeatherDisplay:10.37,2013-02-14 17:15:00,
2013-02-14 12:20:00,42.3,24.5,29.86,North,0,0.0,0.0,49,0.00,CLR,,0.00,577.0,WeatherDisplay:10.37,2013-02-14 17:20:00,
2013-02-14 12:25:00,42.7,26.3,29.86,North,0,0.0,0.0,52,0.00,CLR,,0.00,578.0,WeatherDisplay:10.37,2013-02-14 17:25:00,
2013-02-14 12:30:00,42.5,25.1,29.86,North,0,0.0,0.0,50,0.00,CLR,,0.00,582.0,WeatherDisplay:10.37,2013-02-14 17:30:00,
2013-02-14 12:35:00,42.2,25.3,29.86,North,0,0.0,0.0,51,0.00,CLR,,0.00,578.0,WeatherDisplay:10.37,2013-02-14 17:35:00,
2013-02-14 12:40:00,42.4,24.6,29.86,North,0,0.0,0.0,49,0.00,CLR,,0.00,578.0,WeatherDisplay:10.37,2013-02-14 17:40:00,
2013-02-14 12:45:00,42.5,24.7,29.86,North,0,0.0,0.0,49,0.00,CLR,,0.00,575.0,WeatherDisplay:10.37,2013-02-14 17:45:00,
2013-02-14 12:50:00,42.6,23.8,29.86,North,0,0.0,0.0,47,0.00,CLR,,0.00,568.0,WeatherDisplay:10.37,2013-02-14 17:50:00,
2013-02-14 12:55:00,42.9,24.5,29.86,North,0,0.0,0.0,48,0.00,CLR,,0.00,564.0,WeatherDisplay:10.37,2013-02-14 17:55:00,
2013-02-14 13:01:00,43.3,24.9,29.86,North,0,0.0,0.0,48,0.00,CLR,,0.00,563.0,WeatherDisplay:10.37,2013-02-14 18:01:00,
2013-02-14 13:06:00,43.0,23.6,29.86,North,0,0.0,0.0,46,0.00,CLR,,0.00,559.0,WeatherDisplay:10.37,2013-02-14 18:06:00,
2013-02-14 13:11:00,42.4,24.1,29.85,North,0,0.0,0.0,48,0.00,CLR,,0.00,555.0,WeatherDisplay:10.37,2013-02-14 18:11:00,
2013-02-14 13:16:00,42.5,23.2,29.85,North,0,0.0,0.0,46,0.00,CLR,,0.00,550.0,WeatherDisplay:10.37,2013-02-14 18:16:00,
2013-02-14 13:21:00,42.7,24.4,29.86,North,0,0.0,0.0,48,0.00,CLR,,0.00,545.0,WeatherDisplay:10.37,2013-02-14 18:21:00,
2013-02-14 13:26:00,42.9,23.5,29.85,North,0,0.0,0.0,46,0.00,CLR,,0.00,538.0,WeatherDisplay:10.37,2013-02-14 18:26:00,
2013-02-14 13:31:00,42.8,23.9,29.86,North,0,0.0,0.0,47,0.00,CLR,,0.00,533.0,WeatherDisplay:10.37,2013-02-14 18:31:00,
2013-02-14 13:36:00,42.5,24.2,29.85,North,0,0.0,0.0,48,0.00,CLR,,0.00,362.0,WeatherDisplay:10.37,2013-02-14 18:36:00,
2013-02-14 13:41:00,42.7,24.8,29.86,North,0,0.0,0.0,49,0.00,FEW,,0.00,429.0,WeatherDisplay:10.37,2013-02-14 18:41:00,
2013-02-14 13:46:00,42.5,23.2,29.85,North,0,0.0,0.0,46,0.00,CLR,,0.00,471.0,WeatherDisplay:10.37,2013-02-14 18:46:00,
2013-02-14 13:51:00,42.7,24.4,29.85,North,0,0.0,0.0,48,0.00,CLR,,0.00,496.0,WeatherDisplay:10.37,2013-02-14 18:51:00,
2013-02-14 13:56:00,42.9,24.0,29.85,North,0,0.0,0.0,47,0.00,CLR,,0.00,362.0,WeatherDisplay:10.37,2013-02-14 18:56:00,
2013-02-14 14:01:00,42.6,23.2,29.85,North,0,0.0,0.0,46,0.00,FEW,,0.00,441.0,WeatherDisplay:10.37,2013-02-14 19:01:00,
2013-02-14 14:06:00,42.7,24.4,29.85,North,0,0.0,0.0,48,0.00,CLR,,0.00,311.0,WeatherDisplay:10.37,2013-02-14 19:06:00,
2013-02-14 14:11:00,42.8,24.9,29.85,North,0,0.0,0.0,49,0.00,SCT,,0.00,221.0,WeatherDisplay:10.37,2013-02-14 19:11:00,
2013-02-14 14:16:00,43.3,24.9,29.85,North,0,0.0,0.0,48,0.00,BKN,,0.00,146.0,WeatherDisplay:10.37,2013-02-14 19:16:00,
2013-02-14 14:21:00,43.2,23.8,29.85,North,0,0.0,0.0,46,0.00,BKN,,0.00,144.0,WeatherDisplay:10.37,2013-02-14 19:21:00,
2013-02-14 14:26:00,43.1,23.7,29.85,North,0,0.0,0.0,46,0.00,BKN,,0.00,214.0,WeatherDisplay:10.37,2013-02-14 19:26:00,
2013-02-14 14:31:00,43.0,24.1,29.85,North,0,0.0,0.0,47,0.00,SCT,,0.00,309.0,WeatherDisplay:10.37,2013-02-14 19:31:00,
2013-02-14 14:36:00,43.0,24.6,29.85,North,0,0.0,0.0,48,0.00,SCT,,0.00,211.0,WeatherDisplay:10.37,2013-02-14 19:36:00,
2013-02-14 14:41:00,43.0,25.1,29.86,North,0,0.0,0.0,49,0.00,SCT,,0.00,221.0,WeatherDisplay:10.37,2013-02-14 19:41:00,
2013-02-14 14:46:00,43.0,25.1,29.86,North,0,0.0,0.0,49,0.00,SCT,,0.00,248.0,WeatherDisplay:10.37,2013-02-14 19:46:00,
2013-02-14 14:51:00,43.0,24.6,29.86,North,0,0.0,0.0,48,0.00,SCT,,0.00,183.0,WeatherDisplay:10.37,2013-02-14 19:51:00,
2013-02-14 14:56:00,42.8,23.9,29.86,North,0,0.0,0.0,47,0.00,BKN,,0.00,46.0,WeatherDisplay:10.37,2013-02-14 19:56:00,
2013-02-14 15:01:00,42.9,25.0,29.86,North,0,0.0,0.0,49,0.00,BKN,,0.00,121.0,WeatherDisplay:10.37,2013-02-14 20:01:00,
2013-02-14 15:06:00,42.8,24.4,29.87,North,0,0.0,0.0,48,0.00,BKN,,0.00,98.0,WeatherDisplay:10.37,2013-02-14 20:06:00,
2013-02-14 15:11:00,42.6,24.3,29.87,North,0,0.0,0.0,48,0.00,BKN,,0.00,81.0,WeatherDisplay:10.37,2013-02-14 20:11:00,
2013-02-14 15:16:00,42.6,24.8,29.87,North,0,0.0,0.0,49,0.00,BKN,,0.00,76.0,WeatherDisplay:10.37,2013-02-14 20:16:00,
2013-02-14 15:21:00,42.6,24.3,29.88,North,0,0.0,0.0,48,0.00,BKN,,0.00,58.0,WeatherDisplay:10.37,2013-02-14 20:21:00,
2013-02-14 15:26:00,42.6,24.8,29.88,North,0,0.0,0.0,49,0.00,BKN,,0.00,97.0,WeatherDisplay:10.37,2013-02-14 20:26:00,
2013-02-14 15:31:00,42.6,25.2,29.88,North,0,0.0,0.0,50,0.00,BKN,,0.00,35.0,WeatherDisplay:10.37,2013-02-14 20:31:00,
2013-02-14 15:36:00,42.6,24.8,29.88,North,0,0.0,0.0,49,0.00,BKN,,0.00,49.0,WeatherDisplay:10.37,2013-02-14 20:36:00,
2013-02-14 15:41:00,42.6,24.3,29.87,North,0,0.0,0.0,48,0.00,BKN,,0.00,32.0,WeatherDisplay:10.37,2013-02-14 20:41:00,
2013-02-14 15:46:00,42.6,24.8,29.87,North,0,0.0,0.0,49,0.00,BKN,,0.00,47.0,WeatherDisplay:10.37,2013-02-14 20:46:00,
2013-02-14 15:51:00,42.5,24.2,29.87,North,0,0.0,0.0,48,0.00,BKN,,0.00,49.0,WeatherDisplay:10.37,2013-02-14 20:51:00,
2013-02-14 15:56:00,42.4,24.6,29.87,North,0,0.0,0.0,49,0.00,BKN,,0.00,40.0,WeatherDisplay:10.37,2013-02-14 20:56:00,
2013-02-14 16:01:00,42.4,25.1,29.87,North,0,0.0,0.0,50,0.00,BKN,,0.00,37.0,WeatherDisplay:10.37,2013-02-14 21:01:00,
2013-02-14 16:06:00,42.4,24.1,29.88,North,0,0.0,0.0,48,0.00,BKN,,0.00,39.0,WeatherDisplay:10.37,2013-02-14 21:06:00,
2013-02-14 16:11:00,42.3,24.5,29.88,North,0,0.0,0.0,49,0.00,BKN,,0.00,63.0,WeatherDisplay:10.37,2013-02-14 21:11:00,
2013-02-14 16:16:00,42.1,25.3,29.88,North,0,0.0,0.0,51,0.00,BKN,,0.00,30.0,WeatherDisplay:10.37,2013-02-14 21:16:00,
2013-02-14 16:21:00,42.0,25.2,29.88,North,0,0.0,0.0,51,0.00,SCT,,0.00,79.0,WeatherDisplay:10.37,2013-02-14 21:21:00,
2013-02-14 16:26:00,41.8,25.0,29.88,North,0,0.0,0.0,51,0.00,BKN,,0.00,23.0,WeatherDisplay:10.37,2013-02-14 21:26:00,
2013-02-14 16:31:00,41.9,25.1,29.88,North,0,0.0,0.0,51,0.00,BKN,,0.00,19.0,WeatherDisplay:10.37,2013-02-14 21:31:00,
2013-02-14 16:36:00,41.9,25.1,29.89,North,0,0.0,0.0,51,0.00,BKN,,0.00,18.0,WeatherDisplay:10.37,2013-02-14 21:36:00,
2013-02-14 16:41:00,41.8,25.4,29.89,North,0,0.0,0.0,52,0.00,BKN,,0.00,16.0,WeatherDisplay:10.37,2013-02-14 21:41:00,
2013-02-14 16:46:00,41.6,24.8,29.90,North,0,0.0,0.0,51,0.00,BKN,,0.00,14.0,WeatherDisplay:10.37,2013-02-14 21:46:00,
2013-02-14 16:51:00,41.5,25.2,29.90,North,0,0.0,0.0,52,0.00,BKN,,0.00,12.0,WeatherDisplay:10.37,2013-02-14 21:51:00,
2013-02-14 16:56:00,41.3,25.0,29.90,North,0,0.0,0.0,52,0.00,BKN,,0.00,11.0,WeatherDisplay:10.37,2013-02-14 21:56:00,
2013-02-14 17:01:00,41.1,24.8,29.89,North,0,0.0,0.0,52,0.00,BKN,,0.00,9.0,WeatherDisplay:10.37,2013-02-14 22:01:00,
2013-02-14 17:06:00,40.9,25.5,29.90,North,0,0.0,0.0,54,0.00,BKN,,0.00,7.0,WeatherDisplay:10.37,2013-02-14 22:06:00,
2013-02-14 17:11:00,40.8,25.9,29.90,North,0,0.0,0.0,55,0.00,BKN,,0.00,5.0,WeatherDisplay:10.37,2013-02-14 22:11:00,
2013-02-14 17:16:00,40.5,26.0,29.90,North,0,0.0,0.0,56,0.00,OVC,,0.00,0.0,WeatherDisplay:10.37,2013-02-14 22:16:00,
2013-02-14 17:21:00,40.2,26.2,29.90,North,0,0.0,0.0,57,0.00,OVC,,0.00,0.0,WeatherDisplay:10.37,2013-02-14 22:21:00,
2013-02-14 17:26:00,39.7,26.1,29.91,North,0,0.0,0.0,58,0.00,OVC,,0.00,0.0,WeatherDisplay:10.37,2013-02-14 22:26:00,
2013-02-14 17:31:00,39.4,26.2,29.91,North,0,0.0,0.0,59,0.00,OVC,,0.00,0.0,WeatherDisplay:10.37,2013-02-14 22:31:00,
2013-02-14 17:36:00,39.0,26.7,29.91,North,0,0.0,0.0,61,0.00,OVC,,0.00,0.0,WeatherDisplay:10.37,2013-02-14 22:36:00,
2013-02-14 17:41:00,38.4,26.5,29.91,North,0,0.0,0.0,62,0.00,OVC,,0.00,0.0,WeatherDisplay:10.37,2013-02-14 22:41:00,
2013-02-14 17:46:00,37.8,25.9,29.91,North,0,0.0,0.0,62,0.00,OVC,,0.00,0.0,WeatherDisplay:10.37,2013-02-14 22:46:00,
2013-02-14 17:51:00,37.3,25.5,29.91,North,0,0.0,0.0,62,0.00,CLR,,0.00,0.0,WeatherDisplay:10.37,2013-02-14 22:51:00,
2013-02-14 17:56:00,36.9,25.9,29.92,North,0,0.0,0.0,64,0.00,CLR,,0.00,0.0,WeatherDisplay:10.37,2013-02-14 22:56:00,
2013-02-14 18:01:00,36.6,25.6,29.92,North,0,0.0,0.0,64,0.00,CLR,,0.00,0.0,WeatherDisplay:10.37,2013-02-14 23:01:00,
2013-02-14 18:06:00,36.2,24.8,29.93,North,0,0.0,0.0,63,0.00,CLR,,0.00,0.0,WeatherDisplay:10.37,2013-02-14 23:06:00,
2013-02-14 18:11:00,35.9,25.6,29.93,North,0,0.0,0.0,66,0.00,CLR,,0.00,0.0,WeatherDisplay:10.37,2013-02-14 23:11:00,
2013-02-14 18:16:00,35.8,25.9,29.93,North,0,0.0,0.0,67,0.00,CLR,,0.00,0.0,WeatherDisplay:10.37,2013-02-14 23:16:00,
2013-02-14 18:21:00,35.7,26.2,29.93,North,0,0.0,0.0,68,0.00,CLR,,0.00,0.0,WeatherDisplay:10.37,2013-02-14 23:21:00,
2013-02-14 18:26:00,35.7,26.5,29.93,North,0,0.0,0.0,69,0.00,CLR,,0.00,0.0,WeatherDisplay:10.37,2013-02-14 23:26:00,
2013-02-14 18:31:00,35.6,26.8,29.93,North,0,0.0,0.0,70,0.00,CLR,,0.00,0.0,WeatherDisplay:10.37,2013-02-14 23:31:00,
2013-02-14 18:36:00,35.6,26.8,29.93,North,0,0.0,0.0,70,0.00,CLR,,0.00,0.0,WeatherDisplay:10.37,2013-02-14 23:36:00,
2013-02-14 18:41:00,35.6,27.1,29.93,North,0,0.0,0.0,71,0.00,CLR,,0.00,0.0,WeatherDisplay:10.37,2013-02-14 23:41:00,
2013-02-14 18:46:00,35.5,27.0,29.93,North,0,0.0,0.0,71,0.00,CLR,,0.00,0.0,WeatherDisplay:10.37,2013-02-14 23:46:00,
2013-02-14 18:51:00,35.4,27.3,29.93,North,0,0.0,0.0,72,0.00,CLR,,0.00,0.0,WeatherDisplay:10.37,2013-02-14 23:51:00,
2013-02-14 18:56:00,35.2,27.1,29.93,North,0,0.0,0.0,72,0.00,CLR,,0.00,0.0,WeatherDisplay:10.37,2013-02-14 23:56:00,
2013-02-14 19:01:00,34.9,27.1,29.93,North,0,0.0,0.0,73,0.00,CLR,,0.00,0.0,WeatherDisplay:10.37,2013-02-15 00:01:00,
2013-02-14 19:06:00,34.6,26.8,29.93,North,0,0.0,0.0,73,0.00,CLR,,0.00,0.0,WeatherDisplay:10.37,2013-02-15 00:06:00,
2013-02-14 19:11:00,34.3,26.9,29.93,North,0,0.0,0.0,74,0.00,CLR,,0.00,0.0,WeatherDisplay:10.37,2013-02-15 00:11:00,
2013-02-14 19:16:00,34.0,26.6,29.93,North,0,0.0,0.0,74,0.00,CLR,,0.00,0.0,WeatherDisplay:10.37,2013-02-15 00:16:00,
2013-02-14 19:21:00,33.7,26.6,29.94,North,0,0.0,0.0,75,0.00,CLR,,0.00,0.0,WeatherDisplay:10.37,2013-02-15 00:21:00,
2013-02-14 19:26:00,33.5,26.7,29.93,North,0,0.0,0.0,76,0.00,CLR,,0.00,0.0,WeatherDisplay:10.37,2013-02-15 00:26:00,
2013-02-14 19:31:00,33.2,26.5,29.94,North,0,0.0,0.0,76,0.00,CLR,,0.00,0.0,WeatherDisplay:10.37,2013-02-15 00:31:00,
2013-02-14 19:36:00,33.0,26.6,29.94,North,0,0.0,0.0,77,0.00,CLR,,0.00,0.0,WeatherDisplay:10.37,2013-02-15 00:36:00,
2013-02-14 19:41:00,32.7,26.3,29.93,North,0,0.0,0.0,77,0.00,CLR,,0.00,0.0,WeatherDisplay:10.37,2013-02-15 00:41:00,
2013-02-14 19:46:00,32.4,26.3,29.94,North,0,0.0,0.0,78,0.00,CLR,,0.00,0.0,WeatherDisplay:10.37,2013-02-15 00:46:00,
2013-02-14 19:51:00,32.2,26.1,29.94,North,0,0.0,0.0,78,0.00,CLR,,0.00,0.0,WeatherDisplay:10.37,2013-02-15 00:51:00,
2013-02-14 19:56:00,32.2,26.4,29.94,North,0,0.0,0.0,79,0.00,CLR,,0.00,0.0,WeatherDisplay:10.37,2013-02-15 00:56:00,
2013-02-14 20:01:00,32.0,26.2,29.94,North,0,0.0,0.0,79,0.00,CLR,,0.00,0.0,WeatherDisplay:10.37,2013-02-15 01:01:00,
2013-02-14 20:06:00,31.8,26.3,29.94,North,0,0.0,0.0,80,0.00,CLR,,0.00,0.0,WeatherDisplay:10.37,2013-02-15 01:06:00,
2013-02-14 20:11:00,31.7,26.2,29.94,North,0,0.0,0.0,80,0.00,CLR,,0.00,0.0,WeatherDisplay:10.37,2013-02-15 01:11:00,
2013-02-14 20:16:00,31.6,26.1,29.94,North,0,0.0,0.0,80,0.00,CLR,,0.00,0.0,WeatherDisplay:10.37,2013-02-15 01:16:00,
2013-02-14 20:21:00,31.5,26.0,29.94,North,0,0.0,0.0,80,0.00,CLR,,0.00,0.0,WeatherDisplay:10.37,2013-02-15 01:21:00,
2013-02-14 20:26:00,31.4,25.9,29.94,North,0,0.0,0.0,80,0.00,CLR,,0.00,0.0,WeatherDisplay:10.37,2013-02-15 01:26:00,
2013-02-14 20:31:00,31.2,25.7,29.94,North,0,0.0,0.0,80,0.00,CLR,,0.00,0.0,WeatherDisplay:10.37,2013-02-15 01:31:00,
2013-02-14 20:36:00,31.1,25.3,29.95,North,0,0.0,0.0,79,0.00,CLR,,0.00,0.0,WeatherDisplay:10.37,2013-02-15 01:36:00,
2013-02-14 20:41:00,31.0,25.2,29.94,North,0,0.0,0.0,79,0.00,CLR,,0.00,0.0,WeatherDisplay:10.37,2013-02-15 01:41:00,
2013-02-14 20:46:00,31.0,25.2,29.94,North,0,0.0,0.0,79,0.00,CLR,,0.00,0.0,WeatherDisplay:10.37,2013-02-15 01:46:00,
2013-02-14 20:51:00,30.8,25.1,29.95,North,0,0.0,0.0,79,0.00,CLR,,0.00,0.0,WeatherDisplay:10.37,2013-02-15 01:51:00,
2013-02-14 20:56:00,30.8,25.1,29.95,North,0,0.0,0.0,79,0.00,CLR,,0.00,0.0,WeatherDisplay:10.37,2013-02-15 01:56:00,
2013-02-14 21:01:00,30.6,24.9,29.95,North,0,0.0,0.0,79,0.00,CLR,,0.00,0.0,WeatherDisplay:10.37,2013-02-15 02:01:00,
2013-02-14 21:06:00,30.5,24.8,29.95,North,0,0.0,0.0,79,0.00,CLR,,0.00,0.0,WeatherDisplay:10.37,2013-02-15 02:06:00,
2013-02-14 21:11:00,30.4,25.0,29.95,North,0,0.0,0.0,80,0.00,CLR,,0.00,0.0,WeatherDisplay:10.37,2013-02-15 02:11:00,
2013-02-14 21:16:00,30.3,24.9,29.95,North,0,0.0,0.0,80,0.00,CLR,,0.00,0.0,WeatherDisplay:10.37,2013-02-15 02:16:00,
2013-02-14 21:21:00,30.1,24.4,29.95,North,0,0.0,0.0,79,0.00,CLR,,0.00,0.0,WeatherDisplay:10.37,2013-02-15 02:21:00,
2013-02-14 21:26:00,30.0,24.6,29.95,North,0,0.0,0.0,80,0.00,CLR,,0.00,0.0,WeatherDisplay:10.37,2013-02-15 02:26:00,
2013-02-14 21:31:00,29.9,24.5,29.95,North,0,0.0,0.0,80,0.00,CLR,,0.00,0.0,WeatherDisplay:10.37,2013-02-15 02:31:00,
2013-02-14 21:36:00,29.8,24.4,29.95,North,0,0.0,0.0,80,0.00,CLR,,0.00,0.0,WeatherDisplay:10.37,2013-02-15 02:36:00,
2013-02-14 21:41:00,29.7,24.3,29.95,North,0,0.0,0.0,80,0.00,CLR,,0.00,0.0,WeatherDisplay:10.37,2013-02-15 02:41:00,
2013-02-14 21:46:00,29.6,24.2,29.95,North,0,0.0,0.0,80,0.00,CLR,,0.00,0.0,WeatherDisplay:10.37,2013-02-15 02:46:00,
2013-02-14 21:51:00,29.5,24.4,29.95,North,0,0.0,0.0,81,0.00,CLR,,0.00,0.0,WeatherDisplay:10.37,2013-02-15 02:51:00,
2013-02-14 21:56:00,29.4,24.3,29.95,North,0,0.0,0.0,81,0.00,CLR,,0.00,0.0,WeatherDisplay:10.37,2013-02-15 02:56:00,
2013-02-14 22:01:00,29.2,24.1,29.95,North,0,0.0,0.0,81,0.00,CLR,,0.00,0.0,WeatherDisplay:10.37,2013-02-15 03:01:00,
2013-02-14 22:06:00,29.1,24.0,29.95,North,0,0.0,0.0,81,0.00,CLR,,0.00,0.0,WeatherDisplay:10.37,2013-02-15 03:06:00,
2013-02-14 22:11:00,29.0,23.9,29.95,North,0,0.0,0.0,81,0.00,CLR,,0.00,0.0,WeatherDisplay:10.37,2013-02-15 03:11:00,
2013-02-14 22:16:00,28.8,23.7,29.95,North,0,0.0,0.0,81,0.00,CLR,,0.00,0.0,WeatherDisplay:10.37,2013-02-15 03:16:00,
2013-02-14 22:21:00,28.7,23.6,29.95,North,0,0.0,0.0,81,0.00,CLR,,0.00,0.0,WeatherDisplay:10.37,2013-02-15 03:21:00,
2013-02-14 22:26:00,28.5,23.4,29.96,North,0,0.0,0.0,81,0.00,CLR,,0.00,0.0,WeatherDisplay:10.37,2013-02-15 03:26:00,
2013-02-14 22:31:00,28.3,23.5,29.96,North,0,0.0,0.0,82,0.00,CLR,,0.00,0.0,WeatherDisplay:10.37,2013-02-15 03:31:00,
2013-02-14 22:36:00,28.2,23.4,29.96,North,0,0.0,0.0,82,0.00,CLR,,0.00,0.0,WeatherDisplay:10.37,2013-02-15 03:36:00,
2013-02-14 22:41:00,28.1,23.3,29.96,North,0,0.0,0.0,82,0.00,CLR,,0.00,0.0,WeatherDisplay:10.37,2013-02-15 03:41:00,
2013-02-14 22:46:00,28.0,23.2,29.96,North,0,0.0,0.0,82,0.00,CLR,,0.00,0.0,WeatherDisplay:10.37,2013-02-15 03:46:00,
2013-02-14 22:51:00,27.9,23.4,29.96,North,0,0.0,0.0,83,0.00,CLR,,0.00,0.0,WeatherDisplay:10.37,2013-02-15 03:51:00,
2013-02-14 22:56:00,27.9,23.4,29.96,North,0,0.0,0.0,83,0.00,CLR,,0.00,0.0,WeatherDisplay:10.37,2013-02-15 03:56:00,
2013-02-14 23:01:00,27.9,23.4,29.97,North,0,0.0,0.0,83,0.00,CLR,,0.00,0.0,WeatherDisplay:10.37,2013-02-15 04:01:00,
2013-02-14 23:06:00,27.9,23.4,29.97,North,0,0.0,0.0,83,0.00,CLR,,0.00,0.0,WeatherDisplay:10.37,2013-02-15 04:06:00,
2013-02-14 23:11:00,27.9,23.4,29.97,North,0,0.0,0.0,83,0.00,CLR,,0.00,0.0,WeatherDisplay:10.37,2013-02-15 04:11:00,
2013-02-14 23:16:00,28.0,23.5,29.96,North,0,0.0,0.0,83,0.00,CLR,,0.00,0.0,WeatherDisplay:10.37,2013-02-15 04:16:00,
2013-02-14 23:21:00,28.0,23.5,29.96,North,0,0.0,0.0,83,0.00,CLR,,0.00,0.0,WeatherDisplay:10.37,2013-02-15 04:21:00,
2013-02-14 23:26:00,28.0,23.5,29.96,North,0,0.0,0.0,83,0.00,CLR,,0.00,0.0,WeatherDisplay:10.37,2013-02-15 04:26:00,
2013-02-14 23:31:00,28.0,23.8,29.96,North,0,0.0,0.0,84,0.00,CLR,,0.00,0.0,WeatherDisplay:10.37,2013-02-15 04:31:00,
2013-02-14 23:36:00,28.0,23.8,29.96,North,0,0.0,0.0,84,0.00,CLR,,0.00,0.0,WeatherDisplay:10.37,2013-02-15 04:36:00,
2013-02-14 23:41:00,28.1,23.9,29.96,North,0,0.0,0.0,84,0.00,CLR,,0.00,0.0,WeatherDisplay:10.37,2013-02-15 04:41:00,
2013-02-14 23:46:00,28.1,23.9,29.96,North,0,0.0,0.0,84,0.00,CLR,,0.00,0.0,WeatherDisplay:10.37,2013-02-15 04:46:00,
2013-02-14 23:51:00,28.1,23.9,29.96,North,0,0.0,0.0,84,0.00,CLR,,0.00,0.0,WeatherDisplay:10.37,2013-02-15 04:51:00,
2013-02-14 23:56:00,28.3,23.8,29.96,North,0,0.0,0.0,83,0.00,CLR,,0.00,0.0,WeatherDisplay:10.37,2013-02-15 04:56:00,